Location: Gwatt
(46.7204°N, 7.6223°E)
Time: 01:21:28
(UTC+00:00)

Envisat - Pass Details

Date: 03 December 2020
Orbit: 764 x 766 km, 98.1° (Epoch: 19 January)

Event Time Altitude Azimuth Distance (km) Brightness Sun altitude
Rises 04:04:30 0° 30° (NNE) 3,244 6.6 -28.6°
Reaches altitude 10° 04:07:49 10° 52° (NE) 2,311 6.1 -28.0°
Maximum altitude 04:10:48 16° 88° (E) 1,950 5.9 -27.5°
Drops below altitude 10° 04:13:45 10° 124° (SE) 2,300 6.2 -27.0°
Sets 04:17:01 0° 147° (SSE) 3,219 6.7 -26.4°
